Date String (YYYY-MM-DD hh:mm:ss) UTC,Instrument flags,absolute air pressure of the measurement (hPa),sample flow rate (lpm),inlet stack bypass flow (lpm),air temperature of the measurement (°C),ambient temperature measured by the external sensor (°C),aerosol sample conditioner tube jacket temperature (°C),OPC LED temperature (°C),internal box temperature (°C),relative humidity of the measurement (%),span deviation,mass concentration of particles derived from Lorenz-Mie calculation of OPC scattering (μg/m³),mass concentration of particles derived from Lorenz-Mie calculation of OPC scattering (μg/m³),mass concentration of particles derived from Lorenz-Mie calculation of OPC scattering (μg/m³)
DateTimeUTC,F1_M11,P_M11,Q1_M11,Q2_M11,T1_M11,T2_M11,T3_M11,T4_M11,T5_M11,U1_M11,ZSPAN_M11,X2_M11,X0_M11,X1_M11
2023-08-04 12:00:00,SystemResetWarning,0833.4,5.00,000.00,029.5,027.6,000.0,038.1,031.0,32.9,0000.0,0004.13,0008.85,0003.66
2023-08-04 12:01:00,SystemResetWarning,0833.4,5.00,000.00,029.5,027.7,000.0,038.0,031.0,32.9,0000.0,0004.13,0008.85,0003.65
2023-08-04 12:02:00,SystemResetWarning,0833.4,5.00,000.00,029.5,027.9,000.0,038.1,031.1,32.9,0000.0,0004.15,0008.90,0003.64
2023-08-04 12:03:00,SystemResetWarning,0833.4,5.00,000.00,029.5,028.0,000.0,038.1,031.1,32.9,0000.0,0004.13,0008.88,0003.62
2023-08-04 12:04:00,SystemResetWarning,0833.4,5.00,000.00,029.6,028.1,000.0,038.1,031.1,32.9,0000.0,0004.12,0008.87,0003.61
2023-08-04 12:05:00,SystemResetWarning,0833.3,4.99,000.00,029.6,028.2,000.0,038.1,031.2,32.9,0000.0,0004.14,0008.96,0003.60
2023-08-04 12:06:00,SystemResetWarning,0833.3,4.99,000.00,029.6,028.2,000.0,038.1,031.2,33.0,0000.0,0004.12,0009.60,0003.59
2023-08-04 12:07:00,SystemResetWarning,0833.4,5.00,000.00,029.6,028.3,000.0,038.1,031.2,33.0,0000.0,0004.09,0009.67,0003.58
2023-08-04 12:08:00,SystemResetWarning,0833.4,5.01,000.00,029.7,028.3,000.0,038.1,031.2,33.0,0000.0,0004.07,0008.24,0003.58
2023-08-04 12:09:00,SystemResetWarning,0833.4,5.00,000.00,029.7,028.4,000.0,038.1,031.3,32.8,0000.0,0004.07,0008.42,0003.57
2023-08-04 12:10:00,SystemResetWarning,0833.4,5.00,000.00,029.7,028.4,000.0,038.1,031.3,32.7,0000.0,0004.10,0008.89,0003.57
2023-08-04 12:11:00,SystemResetWarning,0833.4,5.00,000.00,029.7,028.4,000.0,038.1,031.3,32.7,0000.0,0004.13,0009.06,0003.58
2023-08-04 12:12:00,SystemResetWarning,0833.4,5.00,000.00,029.7,028.5,000.0,038.1,031.3,32.7,0000.0,0004.15,0009.16,0003.59
2023-08-04 12:13:00,SystemResetWarning,0833.4,5.00,000.00,029.8,028.5,000.0,038.2,031.3,32.7,0000.0,0004.12,0009.10,0003.60
2023-08-04 12:14:00,SystemResetWarning,0833.4,5.00,000.00,029.8,028.5,000.0,038.2,031.3,32.7,0000.0,0004.11,0009.02,0003.61
2023-08-04 12:15:00,SystemResetWarning,0833.4,5.00,000.00,029.8,028.5,000.0,038.2,031.3,32.7,0000.0,0004.10,0008.97,0003.61
2023-08-04 12:16:00,SystemResetWarning,0833.4,5.00,000.00,029.8,028.5,000.0,038.2,031.4,32.7,0000.0,0004.09,0008.94,0003.61
2023-08-04 12:17:00,SystemResetWarning,0833.4,5.00,000.00,029.8,028.5,000.0,038.2,031.4,32.6,0000.0,0004.11,0008.58,0003.61
2023-08-04 12:18:00,SystemResetWarning,0833.4,5.00,000.00,029.8,028.6,000.0,038.3,031.4,32.6,0000.0,0004.13,0008.54,0003.61
2023-08-04 12:19:00,SystemResetWarning,0833.4,5.00,000.00,029.9,028.6,000.0,038.3,031.4,32.5,0000.0,0004.12,0008.54,0003.60
2023-08-04 12:20:00,SystemResetWarning,0833.4,5.00,000.00,029.9,028.6,000.0,038.3,031.5,32.4,0000.0,0004.13,0008.06,0003.60
2023-08-04 12:21:00,SystemResetWarning,0833.4,5.00,000.00,029.9,028.7,000.0,038.3,031.5,32.3,0000.0,0004.10,0007.48,0003.60
2023-08-04 12:22:00,SystemResetWarning,0833.4,5.00,000.00,029.9,028.7,000.0,038.3,031.5,32.2,0000.0,0004.10,0007.49,0003.59
2023-08-04 12:23:00,SystemResetWarning,0833.4,5.01,000.00,029.9,028.7,000.0,038.3,031.5,32.2,0000.0,0004.06,0007.39,0003.58
2023-08-04 12:24:00,SystemResetWarning,0833.4,5.00,000.00,030.0,028.8,000.0,038.4,031.6,32.2,0000.0,0004.05,0007.36,0003.57
2023-08-04 12:25:00,SystemResetWarning,0833.5,4.99,000.00,030.0,028.8,000.0,038.4,031.6,32.0,0000.0,0004.08,0007.42,0003.57
2023-08-04 12:26:00,SystemResetWarning,0833.5,5.00,000.00,030.0,028.8,000.0,038.4,031.6,31.5,0000.0,0004.11,0007.51,0003.58
2023-08-04 12:27:00,SystemResetWarning,0833.5,5.00,000.00,030.0,028.6,000.0,038.4,031.6,31.9,0000.0,0004.09,0007.49,0003.57
2023-08-04 12:28:00,SystemResetWarning,0833.5,4.99,000.00,030.0,026.8,000.0,038.3,031.4,31.8,0000.0,0004.09,0007.69,0003.57
2023-08-04 12:29:00,SystemResetWarning,0833.4,5.02,000.00,029.9,025.7,000.0,038.2,031.1,31.8,0000.0,0004.08,0007.80,0003.58
2023-08-04 12:30:00,SystemResetWarning,0833.4,5.00,000.00,029.8,025.6,000.0,038.2,030.9,31.8,0000.0,0004.10,0008.51,0003.58
2023-08-04 12:31:00,SystemResetWarning,0833.4,4.99,000.00,029.6,025.9,000.0,038.2,030.8,32.2,0000.0,0004.09,0008.87,0003.59
2023-08-04 12:32:00,SystemResetWarning,0833.4,5.00,000.00,029.6,026.3,000.0,038.2,030.9,32.2,0000.0,0004.12,0008.93,0003.60
2023-08-04 12:33:00,SystemResetWarning,0833.4,5.00,000.00,029.6,026.6,000.0,038.2,030.9,31.9,0000.0,0004.13,0008.87,0003.61
2023-08-04 12:34:00,SystemResetWarning,0833.4,5.01,000.00,029.6,027.0,000.0,038.2,031.0,31.6,0000.0,0004.17,0008.89,0003.63
2023-08-04 12:35:00,SystemResetWarning,0833.4,4.99,000.00,029.6,027.3,000.0,038.2,031.0,31.5,0000.0,0004.18,0008.92,0003.64
2023-08-04 12:36:00,SystemResetWarning,0833.4,5.00,000.00,029.6,027.5,000.0,038.2,031.1,31.6,0000.0,0004.16,0008.94,0003.65
2023-08-04 12:37:00,SystemResetWarning,0833.4,5.00,000.00,029.6,027.7,000.0,038.1,031.1,31.5,0000.0,0004.16,0009.22,0003.66
2023-08-04 12:38:00,SystemResetWarning,0833.4,5.00,000.00,029.6,027.8,000.0,038.1,031.1,31.4,0000.0,0004.18,0009.21,0003.67
2023-08-04 12:39:00,SystemResetWarning,0833.4,5.00,000.00,029.6,028.0,000.0,038.1,031.1,31.5,0000.0,0004.18,0009.07,0003.68
2023-08-04 12:40:00,SystemResetWarning,0833.4,4.99,000.00,029.6,028.1,000.0,038.1,031.2,31.1,0000.0,0004.20,0009.29,0003.69
2023-08-04 12:41:00,SystemResetWarning,0833.4,4.99,000.00,029.6,028.2,000.0,038.1,031.2,31.2,0000.0,0004.20,0008.66,0003.68
2023-08-04 12:42:00,SystemResetWarning,0833.4,5.00,000.00,029.7,028.2,000.0,038.2,031.2,31.2,0000.0,0004.21,0008.21,0003.68
2023-08-04 12:43:00,SystemResetWarning,0833.4,5.00,000.00,029.7,028.3,000.0,038.2,031.3,31.2,0000.0,0004.19,0008.14,0003.67
2023-08-04 12:44:00,SystemResetWarning,0833.4,5.01,000.00,029.7,028.4,000.0,038.2,031.3,31.2,0000.0,0004.16,0008.14,0003.66
2023-08-04 12:45:00,SystemResetWarning,0833.5,5.00,000.00,029.7,028.4,000.0,038.2,031.3,31.3,0000.0,0004.12,0008.23,0003.64
2023-08-04 12:46:00,SystemResetWarning,0833.4,5.01,000.00,029.8,028.5,000.0,038.2,031.4,31.3,0000.0,0004.13,0008.28,0003.63
2023-08-04 12:47:00,SystemResetWarning,0833.5,5.01,000.00,029.8,028.5,000.0,038.2,031.4,31.0,0000.0,0004.12,0008.24,0003.63
2023-08-04 12:48:00,SystemResetWarning,0833.4,5.00,000.00,029.8,028.6,000.0,038.2,031.4,30.6,0000.0,0004.13,0008.01,0003.63
2023-08-04 12:49:00,SystemResetWarning,0833.4,4.99,000.00,029.8,028.6,000.0,038.2,031.4,30.6,0000.0,0004.12,0007.92,0003.62
2023-08-04 12:50:00,SystemResetWarning,0833.4,4.99,000.00,029.8,028.6,000.0,038.2,031.4,30.5,0000.0,0004.13,0007.91,0003.63
2023-08-04 12:51:00,SystemResetWarning,0833.4,5.00,000.00,029.9,028.7,000.0,038.3,031.5,30.6,0000.0,0004.10,0007.31,0003.63
2023-08-04 12:52:00,SystemResetWarning,0833.4,5.00,000.00,029.9,028.7,000.0,038.3,031.5,30.7,0000.0,0004.09,0007.29,0003.64
2023-08-04 12:53:00,SystemResetWarning,0833.5,5.00,000.00,029.9,028.7,000.0,038.3,031.5,30.6,0000.0,0004.09,0007.24,0003.65
2023-08-04 12:54:00,SystemResetWarning,0833.6,5.00,000.00,029.9,028.8,000.0,038.3,031.5,30.6,0000.0,0004.09,0007.22,0003.66
2023-08-04 12:55:00,SystemResetWarning,0833.6,4.99,000.00,029.9,028.3,000.0,038.3,031.5,30.6,0000.0,0004.08,0007.13,0003.66
2023-08-04 12:56:00,SystemResetWarning,0833.6,5.01,000.00,029.9,026.7,000.0,038.2,031.4,30.7,0000.0,0004.09,0006.76,0003.66
2023-08-04 12:57:00,SystemResetWarning,0833.6,5.02,000.00,029.8,026.0,000.0,038.1,031.2,30.6,0000.0,0004.09,0006.90,0003.67
2023-08-04 12:58:00,SystemResetWarning,0833.6,5.00,000.00,029.7,026.1,000.0,038.1,030.9,30.3,0000.0,0004.08,0007.28,0003.67
2023-08-04 12:59:00,SystemResetWarning,0833.7,4.99,000.00,029.7,026.4,000.0,038.2,030.9,30.0,0000.0,0004.08,0007.36,0003.66
